| time (UTC) | temp F | wind direction | speed MPH | gust MPH | rain 1hr in | rain 24hr in | rain mn in | humidity % | barometer mb |
| 20260507181553 | 65 | 37 | 6.0 | 10.0 | 0.00 | 0.00 | 0.00 | 68 | 1010.7 |
| 20260507180057 | 65 | 40 | 6.0 | 10.0 | 0.00 | 0.00 | 0.00 | 69 | 1010.7 |
| 20260507174544 | 64 | 27 | 5.0 | 10.0 | 0.00 | 0.00 | 0.00 | 67 | 1011.2 |
| 20260507173045 | 65 | 34 | 3.0 | 7.0 | 0.00 | 0.00 | 0.00 | 66 | 1011.9 |
| 20260507171534 | 64 | 58 | 1.0 | 8.0 | 0.00 | 0.00 | 0.00 | 70 | 1012.4 |
| 20260507170030 | 63 | 19 | 5.0 | 10.0 | 0.00 | 0.00 | 0.00 | 69 | 1011.8 |
| 20260507164528 | 62 | 25 | 6.0 | 11.0 | 0.00 | 0.00 | 0.00 | 71 | 1012.0 |
| 20260507163020 | 62 | 27 | 6.0 | 11.0 | 0.00 | 0.00 | 0.00 | 69 | 1012.0 |
| 20260507161516 | 62 | 61 | 7.0 | 14.0 | 0.00 | 0.00 | 0.00 | 69 | 1011.6 |
| 20260507160032 | 62 | 15 | 9.0 | 15.0 | 0.00 | 0.00 | 0.00 | 70 | 1011.8 |
| 20260507154507 | 61 | 48 | 11.0 | 16.0 | 0.00 | 0.00 | 0.00 | 70 | 1011.5 |
| 20260507153004 | 61 | 33 | 7.0 | 11.0 | 0.00 | 0.00 | 0.00 | 71 | 1012.0 |
| 20260507151558 | 61 | 7 | 7.0 | 12.0 | 0.00 | 0.00 | 0.00 | 72 | 1012.2 |
| 20260507150054 | 60 | 356 | 7.0 | 12.0 | 0.00 | 0.00 | 0.00 | 73 | 1012.2 |
| 20260507144552 | 59 | 32 | 8.0 | 14.0 | 0.00 | 0.00 | 0.00 | 75 | 1012.0 |
| 20260507143049 | 58 | 19 | 8.0 | 16.0 | 0.00 | 0.00 | 0.00 | 78 | 1011.6 |
| 20260507141544 | 58 | 31 | 6.0 | 12.0 | 0.00 | 0.00 | 0.00 | 82 | 1011.9 |
| 20260507140037 | 57 | 315 | 4.0 | 11.0 | 0.00 | 0.00 | 0.00 | 84 | 1012.4 |
| 20260507134532 | 56 | 349 | 5.0 | 10.0 | 0.00 | 0.00 | 0.00 | 86 | 1012.5 |
| 20260507133027 | 56 | 22 | 3.0 | 14.0 | 0.00 | 0.00 | 0.00 | 87 | 1012.7 |
| 20260507131522 | 56 | 350 | 6.0 | 11.0 | 0.00 | 0.00 | 0.00 | 87 | 1012.6 |
| 20260507130025 | 56 | 316 | 6.0 | 14.0 | 0.00 | 0.00 | 0.00 | 88 | 1012.5 |
| 20260507124518 | 56 | 353 | 13.0 | 15.0 | 0.00 | 0.00 | 0.00 | 88 | 1011.9 |
| 20260507123007 | 0 | 0.0 | 0.0 | 0.00 | 0.00 | 0.00 | 1012.2 | ||
| 20260507121504 | 0 | 0.0 | 0.0 | 0.00 | 0.00 | 0.00 | 1012.1 | ||
| 20260507120100 | 0 | 0.0 | 0.0 | 0.00 | 0.00 | 0.00 | 1011.8 | ||
| 20260507114611 | 0 | 0.0 | 0.0 | 0.00 | 0.00 | 0.00 | 1011.7 | ||
| 20260507113055 | 0 | 0.0 | 0.0 | 0.00 | 0.00 | 0.00 | 1011.2 | ||
| 20260507111547 | 0 | 0.0 | 0.0 | 0.00 | 0.00 | 0.00 | 1011.3 | ||
| 20260507110045 | 0 | 0.0 | 0.0 | 0.00 | 0.00 | 0.00 | 1011.1 | ||
| 20260507104545 | 0 | 0.0 | 0.0 | 0.00 | 0.00 | 0.00 | 1011.3 | ||
| 20260507103032 | 0 | 0.0 | 0.0 | 0.00 | 0.00 | 0.00 | 1011.4 | ||
| 20260507101529 | -90 | 287 | 5.0 | 11.0 | 0.00 | 0.00 | 0.00 | 89 | 1010.9 |
| 20260507100026 | 58 | 323 | 1.0 | 10.0 | 0.00 | 0.00 | 0.00 | 90 | 1010.8 |
| 20260507094523 | 58 | 28 | 3.0 | 10.0 | 0.00 | 0.00 | 0.00 | 89 | 1010.6 |
| 20260507093026 | 58 | 301 | 2.0 | 7.0 | 0.00 | 0.00 | 0.00 | 90 | 1010.5 |
| 20260507091534 | 58 | 352 | 2.0 | 6.0 | 0.00 | 0.00 | 0.00 | 90 | 1009.9 |
| 20260507090017 | 57 | 36 | 4.0 | 10.0 | 0.00 | 0.00 | 0.00 | 91 | 1009.7 |
| 20260507084520 | 57 | 14 | 6.0 | 11.0 | 0.00 | 0.00 | 0.00 | 91 | 1009.3 |
| 20260507083013 | 57 | 28 | 7.0 | 14.0 | 0.00 | 0.00 | 0.00 | 91 | 1009.0 |
| 20260507081510 | 58 | 23 | 6.0 | 12.0 | 0.00 | 0.00 | 0.00 | 90 | 1009.0 |
| 20260507080009 | 58 | 47 | 6.0 | 11.0 | 0.00 | 0.00 | 0.00 | 90 | 1008.4 |
| 20260507074508 | 58 | 39 | 6.0 | 10.0 | 0.00 | 0.00 | 0.00 | 90 | 1008.4 |
| 20260507073007 | 58 | 37 | 7.0 | 12.0 | 0.00 | 0.00 | 0.00 | 89 | 1008.7 |
| 20260507071507 | 57 | 61 | 6.0 | 11.0 | 0.00 | 0.00 | 0.00 | 90 | 1008.2 |
| 20260507070003 | 57 | 3 | 5.0 | 9.0 | 0.00 | 0.00 | 0.00 | 89 | 1008.5 |
| 20260507064501 | 57 | 32 | 5.0 | 9.0 | 0.00 | 0.00 | 0.00 | 89 | 1008.6 |
| 20260507063102 | 58 | 10 | 7.0 | 12.0 | 0.00 | 0.00 | 0.00 | 89 | 1008.5 |
| 20260507061557 | 58 | 30 | 6.0 | 12.0 | 0.00 | 0.00 | 0.00 | 89 | 1008.7 |
| 20260507060059 | 58 | 30 | 6.0 | 10.0 | 0.00 | 0.00 | 0.00 | 88 | 1009.1 |
| 20260507054554 | 58 | 4 | 7.0 | 11.0 | 0.00 | 0.00 | 0.00 | 88 | 1008.6 |
| 20260507053050 | 59 | 26 | 11.0 | 16.0 | 0.00 | 0.00 | 0.00 | 88 | 1008.6 |
| 20260507051548 | 59 | 34 | 9.0 | 17.0 | 0.00 | 0.00 | 0.00 | 88 | 1008.7 |
| 20260507050043 | 59 | 60 | 10.0 | 15.0 | 0.00 | 0.00 | 0.00 | 87 | 1008.8 |
| 20260507044543 | 59 | 63 | 8.0 | 13.0 | 0.00 | 0.00 | 0.00 | 87 | 1008.8 |
| 20260507043041 | 60 | 338 | 8.0 | 18.0 | 0.00 | 0.00 | 0.00 | 85 | 1008.5 |
| 20260507041540 | 60 | 18 | 10.0 | 15.0 | 0.00 | 0.00 | 0.00 | 85 | 1008.6 |
| 20260507040039 | 60 | 1 | 6.0 | 12.0 | 0.00 | 0.00 | 0.00 | 83 | 1008.8 |
| 20260507034541 | 61 | 1 | 6.0 | 10.0 | 0.00 | 0.00 | 0.00 | 83 | 1008.8 |
| 20260507033042 | 61 | 319 | 1.0 | 6.0 | 0.00 | 0.00 | 0.00 | 84 | 1009.0 |
| 20260507031536 | 61 | 28 | 1.0 | 6.0 | 0.00 | 0.00 | 0.00 | 83 | 1008.8 |
| 20260507030034 | 61 | 50 | 4.0 | 8.0 | 0.00 | 0.00 | 0.00 | 82 | 1008.6 |
| 20260507024535 | 61 | 41 | 1.0 | 8.0 | 0.00 | 0.00 | 0.00 | 83 | 1008.4 |
| 20260507023031 | 61 | 352 | 4.0 | 8.0 | 0.00 | 0.00 | 0.00 | 83 | 1008.1 |
| 20260507021530 | 61 | 341 | 3.0 | 10.0 | 0.00 | 0.00 | 0.00 | 83 | 1007.7 |
| 20260507020038 | 61 | 25 | 2.0 | 8.0 | 0.00 | 0.00 | 0.00 | 84 | 1007.4 |
| 20260507014524 | 61 | 18 | 1.0 | 8.0 | 0.00 | 0.00 | 0.00 | 84 | 1007.1 |
| 20260507013039 | 61 | 342 | 2.0 | 8.0 | 0.00 | 0.00 | 0.00 | 84 | 1006.6 |
| 20260507011522 | 61 | 320 | 4.0 | 12.0 | 0.00 | 0.00 | 0.00 | 83 | 1006.2 |
| 20260507010026 | 61 | 333 | 6.0 | 11.0 | 0.00 | 0.00 | 0.00 | 83 | 1006.2 |
| 20260507004521 | 62 | 313 | 5.0 | 10.0 | 0.00 | 0.00 | 0.00 | 84 | 1006.1 |
| 20260507003021 | 62 | 39 | 4.0 | 9.0 | 0.00 | 0.00 | 0.00 | 83 | 1005.7 |
| 20260507001525 | 62 | 16 | 3.0 | 11.0 | 0.00 | 0.00 | 0.00 | 83 | 1005.7 |
| 20260507000019 | 61 | 297 | 3.0 | 10.0 | 0.00 | 0.00 | 0.00 | 84 | 1005.8 |
| 20260506234522 | 62 | 335 | 5.0 | 10.0 | 0.00 | 0.00 | 0.00 | 83 | 1005.7 |
| 20260506233017 | 62 | 322 | 4.0 | 6.0 | 0.00 | 0.00 | 0.00 | 83 | 1005.7 |
| 20260506231516 | 62 | 314 | 0.0 | 7.0 | 0.00 | 0.00 | 0.00 | 84 | 1005.6 |
| 20260506230016 | 61 | 341 | 1.0 | 7.0 | 0.00 | 0.00 | 0.00 | 83 | 1005.2 |
| 20260506224514 | 61 | 319 | 4.0 | 10.0 | 0.00 | 0.00 | 0.00 | 83 | 1005.6 |
| 20260506223014 | 61 | 4 | 2.0 | 9.0 | 0.00 | 0.00 | 0.00 | 83 | 1005.2 |
| 20260506221512 | 61 | 326 | 4.0 | 10.0 | 0.00 | 0.00 | 0.00 | 85 | 1005.4 |
| 20260506220021 | 60 | 342 | 7.0 | 13.0 | 0.00 | 0.00 | 0.00 | 83 | 1005.5 |
| 20260506214511 | 60 | 34 | 5.0 | 10.0 | 0.00 | 0.00 | 0.00 | 84 | 1005.4 |
| 20260506213010 | 60 | 342 | 5.0 | 10.0 | 0.00 | 0.00 | 0.00 | 85 | 1005.4 |
| 20260506211516 | 60 | 334 | 7.0 | 12.0 | 0.00 | 0.00 | 0.00 | 84 | 1005.7 |
| 20260506210017 | 60 | 326 | 7.0 | 14.0 | 0.00 | 0.00 | 0.00 | 84 | 1005.7 |
| 20260506204508 | 60 | 264 | 3.0 | 12.0 | 0.00 | 0.00 | 0.00 | 85 | 1005.6 |
| 20260506203008 | 60 | 357 | 4.0 | 13.0 | 0.00 | 0.00 | 0.00 | 84 | 1005.6 |
| 20260506201508 | 60 | 333 | 3.0 | 12.0 | 0.00 | 0.00 | 0.00 | 83 | 1005.8 |
| 20260506200013 | 60 | 332 | 0.0 | 13.0 | 0.00 | 0.00 | 0.00 | 83 | 1005.9 |
| 20260506194506 | 59 | 331 | 8.0 | 14.0 | 0.00 | 0.00 | 0.00 | 84 | 1005.8 |
| 20260506193007 | 59 | 345 | 0.0 | 7.0 | 0.00 | 0.00 | 0.00 | 84 | 1006.2 |
| 20260506191504 | 58 | 335 | 0.0 | 5.0 | 0.00 | 0.00 | 0.00 | 85 | 1006.0 |
| 20260506190004 | 59 | 4 | 0.0 | 4.0 | 0.00 | 0.00 | 0.00 | 85 | 1006.0 |
| 20260506184504 | 59 | 341 | 1.0 | 6.0 | 0.00 | 0.00 | 0.00 | 85 | 1006.3 |
| 20260506183005 | 59 | 311 | 0.0 | 3.0 | 0.00 | 0.00 | 0.00 | 83 | 1005.8 |